Kenai, AK

4:06 AM AKDT on July 28, 2017 (GMT -0800)
Kenai Municipal

Weather History for PAEN - March, 2014

Change the Weather History Date:

Monday, March 17, 2014

  Actual Average Record
Temperature  
Mean Temperature 27 °F -  
Max Temperature 30 °F 33 °F 46 °F (1970)
Min Temperature 24 °F 14 °F -23 °F (1966)
Degree Days  
Heating Degree Days 38    
Moisture  
Dew Point 25 °F    
Average Humidity 90    
Maximum Humidity 100    
Minimum Humidity 69    
Precipitation  
Precipitation 0.03 in - - ()
Sea Level Pressure  
Sea Level Pressure 29.63 in    
Wind  
Wind Speed 17 mph (NNE)    
Max Wind Speed 25 mph    
Max Gust Speed 32 mph    
Visibility 4 miles    
Events Fog , Snow    
Averages and records for this station are not official NWS values.
T = Trace of Precipitation, MM = Missing Value Source: NWS Daily Summary

Daily Weather History Graph

Daily Weather History Graph

Search for Another Location

Airport or City:

Trip Planner

Search our weather history database for the weather conditions in past years. The results will help you decide how hot, cold, wet, or windy it might be!

Date:

Astronomy

Mar. 17, 2014 Rise Set
Actual Time 8:14 AM AKDT 8:12 PM AKDT
Civil Twilight 7:32 AM AKDT 8:55 PM AKDT
Nautical Twilight 6:42 AM AKDT 9:45 PM AKDT
Astronomical Twilight 5:48 AM AKDT 10:40 PM AKDT
Moon 10:10 PM AKDT (3/17) 8:14 AM AKDT (3/17)
Length of Visible Light 13h 22m
Length of Day
11h 57m
Full, 99% of the Moon is Illuminated
Mar 17
Full
Mar 23
Last Quarter
Mar 30
New
Apr 7
First Quarter
Apr 14
Full

Hourly Weather History & Observations

Time (AKDT) Temp. Windchill Dew Point Humidity Pressure Visibility Wind Dir Wind Speed Gust Speed Precip Events Conditions
12:53 AM 24.1 °F 9.4 °F 18.0 °F 77% 29.59 in 10.0 mi NNE 20.7 mph 29.9 mph N/A   Partly Cloudy
1:53 AM 25.0 °F 9.5 °F 18.0 °F 75% 29.59 in 10.0 mi NNE 24.2 mph 31.1 mph N/A   Overcast
2:53 AM 25.0 °F 9.2 °F 18.0 °F 75% 29.58 in 10.0 mi NNE 25.3 mph 32.2 mph N/A   Overcast
3:53 AM 26.1 °F 12.3 °F 17.1 °F 69% 29.59 in 10.0 mi NNE 19.6 mph - N/A   Overcast
4:53 AM 26.1 °F 12.7 °F 18.0 °F 71% 29.60 in 10.0 mi NNE 18.4 mph - N/A   Overcast
5:53 AM 26.1 °F 12.3 °F 19.9 °F 78% 29.60 in 10.0 mi NNE 19.6 mph 27.6 mph N/A   Overcast
6:53 AM 26.1 °F 12.7 °F 19.9 °F 78% 29.60 in 10.0 mi NNE 18.4 mph - N/A   Overcast
7:53 AM 25.0 °F 10.2 °F 21.0 °F 85% 29.59 in 10.0 mi NNE 21.9 mph 31.1 mph N/A   Overcast
8:53 AM 26.1 °F 12.0 °F 23.0 °F 88% 29.60 in 10.0 mi NNE 20.7 mph - N/A   Overcast
9:53 AM 26.1 °F 12.3 °F 23.0 °F 88% 29.61 in 10.0 mi NNE 19.6 mph - N/A   Overcast
10:37 AM 26.6 °F 13.4 °F 21.2 °F 80% 29.60 in 2.0 mi NNE 18.4 mph 25.3 mph 0.00 in Snow Light Snow
10:53 AM 26.1 °F 12.7 °F 21.9 °F 84% 29.62 in 2.0 mi NNE 18.4 mph 25.3 mph 0.00 in Snow Light Snow
11:19 AM 26.6 °F 13.4 °F 23.0 °F 86% 29.61 in 4.0 mi NNE 18.4 mph - 0.00 in Snow Light Snow
11:37 AM 26.6 °F 14.7 °F 23.0 °F 86% 29.62 in 1.8 mi NNE 15.0 mph - 0.00 in Snow Light Snow
11:53 AM 27.0 °F 14.7 °F 23.0 °F 85% 29.64 in 2.5 mi NNE 16.1 mph - 0.00 in Snow Light Snow
12:07 PM 26.6 °F 13.8 °F 23.0 °F 86% 29.63 in 1.2 mi NNE 17.3 mph 23.0 mph 0.00 in Snow Light Snow
12:26 PM 26.6 °F 13.8 °F 24.8 °F 93% 29.63 in 2.0 mi NNE 17.3 mph - 0.00 in Snow Light Snow
12:53 PM 27.0 °F 14.7 °F 24.1 °F 89% 29.64 in 0.8 mi NNE 16.1 mph 23.0 mph 0.00 in Snow Light Snow
1:03 PM 26.6 °F 14.7 °F 24.8 °F 93% 29.63 in 0.5 mi NNE 15.0 mph - 0.00 in Fog , Snow Snow
1:28 PM 26.6 °F 15.2 °F 24.8 °F 93% 29.63 in 1.0 mi NNE 13.8 mph - 0.00 in Snow Light Snow
1:38 PM 26.6 °F 13.8 °F 24.8 °F 93% 29.63 in 1.0 mi NNE 17.3 mph - 0.00 in Snow Light Snow
1:45 PM 28.4 °F 16.6 °F 24.8 °F 86% 29.63 in 1.0 mi NNE 16.1 mph - 0.00 in Snow Light Snow
1:53 PM 28.0 °F 17.5 °F 25.0 °F 88% 29.65 in 1.0 mi NNE 12.7 mph - 0.00 in Snow Light Snow
2:22 PM 28.4 °F 17.5 °F 26.6 °F 93% 29.63 in 1.8 mi NNE 13.8 mph - 0.00 in Snow Light Snow
2:29 PM 28.4 °F 18.0 °F 26.6 °F 93% 29.63 in 3.0 mi NNE 12.7 mph - 0.00 in Snow Light Snow
2:40 PM 28.4 °F 16.2 °F 24.8 °F 86% 29.63 in 1.8 mi NE 17.3 mph - 0.00 in Snow Light Snow
2:53 PM 28.0 °F 16.5 °F 26.1 °F 92% 29.65 in 1.5 mi NNE 15.0 mph - 0.00 in Snow Light Snow
3:06 PM 28.4 °F 17.0 °F 26.6 °F 93% 29.63 in 3.0 mi NNE 15.0 mph - 0.00 in Snow Light Snow
3:53 PM 30.0 °F 19.1 °F 27.0 °F 88% 29.63 in 3.0 mi NNE 15.0 mph - 0.00 in Snow Light Snow
4:53 PM 30.0 °F 20.5 °F 27.0 °F 88% 29.63 in 8.0 mi NNE 11.5 mph - 0.00 in Snow Light Snow
5:26 PM 30.2 °F 21.9 °F 28.4 °F 93% 29.64 in 1.5 mi NE 9.2 mph - 0.00 in Snow Light Snow
5:47 PM 30.2 °F 21.3 °F 28.4 °F 93% 29.63 in 0.5 mi NE 10.4 mph - 0.00 in Fog , Snow Snow
5:48 PM 30.0 °F 20.5 °F 28.9 °F 96% 29.64 in 0.5 mi NE 11.5 mph - 0.00 in Fog , Snow Snow
6:32 PM 30.2 °F 22.6 °F 28.4 °F 93% 29.63 in 1.2 mi NNE 8.1 mph - 0.02 in Snow Light Snow
6:53 PM 28.9 °F 21.1 °F 28.9 °F 100% 29.64 in 1.5 mi NNE 8.1 mph - 0.02 in Snow Light Snow
7:16 PM 28.4 °F 23.3 °F 28.4 °F 100% 29.64 in 0.8 mi NNE 4.6 mph - 0.01 in Snow Light Snow
7:33 PM 28.4 °F 21.2 °F 28.4 °F 100% 29.64 in 1.0 mi NNE 6.9 mph - 0.01 in Snow Light Snow
7:46 PM 28.4 °F 21.2 °F 28.4 °F 100% 29.64 in 2.0 mi NNE 6.9 mph - 0.01 in Snow Light Snow
7:53 PM 28.9 °F 21.1 °F 28.9 °F 100% 29.65 in 3.0 mi NNE 8.1 mph - 0.01 in Snow Light Snow
8:19 PM 28.4 °F 21.2 °F 28.4 °F 100% 29.65 in 2.5 mi North 6.9 mph - 0.00 in Snow Light Snow
8:53 PM 28.9 °F 22.8 °F 28.0 °F 96% 29.67 in 3.0 mi North 5.8 mph - 0.00 in Snow Light Snow
9:53 PM 28.9 °F 20.4 °F 28.0 °F 96% 29.68 in 10.0 mi North 9.2 mph - 0.00 in   Overcast
10:53 PM 28.9 °F 18.6 °F 28.9 °F 100% 29.70 in 10.0 mi North 12.7 mph - N/A   Overcast
11:17 PM 28.4 °F 18.5 °F 28.4 °F 100% 29.69 in 1.8 mi North 11.5 mph - 0.00 in Snow Light Snow
11:31 PM 28.4 °F 19.1 °F 28.4 °F 100% 29.70 in 1.5 mi North 10.4 mph - 0.00 in Snow Light Snow
11:53 PM 28.9 °F 19.2 °F 28.0 °F 96% 29.71 in 1.8 mi North 11.5 mph - 0.00 in Snow Light Snow